User: anonymous   Login
Location: Newark
(41.9000°N, 12.4833°E)
Time: 16:13:19
(UTC+00:00)
Language:

ZACube-1 - Orbit

View from above orbital plane
View from above orbital plane
View from above satellite
View from above satellite

Ground track
Ground track

The orbit data is extracted from the following two-line orbital elements,

1 39417U 13066B   19143.15459727  .00000147  00000-0  24786-4 0  9991
2 39417  97.5636 158.1466 0060383 120.2625 240.4584 14.81102953297112
Epoch (UTC): 23 May 2019 03:42:37
Eccentricity: 0.0060383
inclination: 97.5636°
perigee height: 583 km
apogee height: 668 km
right ascension of ascending node: 158.1466°
argument of perigee: 120.2625°
revolutions per day: 14.81102953
mean anomaly at epoch: 240.4584°
orbit number at epoch: 29711

The dashed part of the orbit path shows where the satellite is in the earth's shadow,  

DLR